Showing default

ICEYE-X38, 59100

Orbit data source: Space-Track

ICEYE-X38, 59100 is a payload satellite owned by ICEYE (FI) in SSO that was launched on Mon, 04 Mar 2024 UTC via an FALCON 9 launch vehicle from the Air Force Western Test Range (AFWTR). Payload-class satellites include a variety of spacecraft equipped with specific instruments for various scientific and technological missions. These include communications satellites like Starlink; space stations such as the ISS; scientific satellites like the Hubble; Earth observation satellites from companies like Planet Labs, Umbra, and HawkEye 360; GPS; miniature CubeSats for education and research; and military/defense satellites.

Loading next visibility...
Identifier
59100, 2024-043C
Orbit
SSO
Country
Flag of FIFI / FIN
Related business
Manufacturer
ICEYE
Mission
Operational Commercial Radar Imaging
Bus & Motor
ICEYE, Unknown motor
Mass
90 kg wet, 89 kg dry
Launch date (UTC)
2024-03-04 (2 years ago)
Launch vehicle
FALCON 9
Launch site
Air Force Western Test Range (AFWTR)
Object type
Payload
Rocket body
Debris
Shape & HBR
Box + 1 Pan, 2.4 m
Radar Cross Section
0.825 m², Medium (>0.1 m² and < 1m²)

Expand to show TLE details & history
Last TLE update: 8 hours ago

TLE from 8 hours ago
0 ICEYE-X38
1 59100U 24043C   26130.21357168  .00003825  00000-0  22367-3 0  9994
2 59100  97.8352 272.9383 0002414 182.9576 177.1640 15.12505853105933
Epoch: 2026-05-10T05:07Z
TLE epoch observation values (Epoch: 2026-05-10T05:07:32.593Z)
Latitude
Longitude
-31.96738°
Altitude
533.294 km
Speed
7.595 km/s
True Right ascension
18h 11m 45s
True Declination
0° 00' 00"
Sunlit
Object was in full shadow at epoch
Visualization orbit readout
Latitude
Unknown
Longitude
Unknown
Altitude
Unknown
Speed
Unknown
Apparent Right ascension
Unknown
Apparent Declination
Unknown
Sunlit
N/A
Visualization observer readout
Local Sidereal Time
21:26:39
Azimuth
Unknown
Elevation
Unknown
Doppler factor
Unknown
Orbital elements
Apogee altitude
527.222 km
Perigee altitude
523.889 km
Semi-major axis
6,903.693 km
Eccentricity
0.00024
Inclination
97.8352°
RAAN
272.9383°
Arg. of periapsis
182.9576°
True anomaly
177.16537°
Mean anomaly
177.164°
Eccentric anomaly
177.16468°
Mean motion
3.78374 °/min
Orbital period
95.14 mins
BSTAR
0.00022367
Loading maneuver chart data...
Computing Atmospheric mass density...
Loading historical data...
Loading historical data...
Loading historical data...
Loading historical data...
Loading historical data...
Loading historical data...
Loading historical data...

Documentation

Showing up to 5 results
|